QPF
0.00 0.00 0.01 0.02 0.01 0.03 0.04 0.02 0.00 0.00 0.00 0.00 0.00 0.00 0.00 0.00 0.00 0.00 0.00 0.00 0.00 0.00 0.00 0.00 0.00 0.00 0.00 0.00 0.00 0.00 0.00 0.00 0.00 0.00 0.00 0.00 0.00 0.00 0.00 0.00 0.00 0.00 0.00 0.00 0.00 0.00 0.00 0.00 0.00
0.00 0.00 0.01 0.01 0.02 0.05 0.07 0.02 0.00 0.00 0.00 0.00 0.00 0.00 0.00 0.00 0.00 0.00 0.00 0.00 0.00 0.00 0.00 0.00 0.00 0.00 0.00 0.00 0.00 0.00 0.00 0.00 0.00 0.00 0.00 0.00 0.00 0.00 0.00 0.00 0.00 0.00 0.00 0.00 0.00 0.00 0.00 0.00 0.00
0.00 0.00 0.00 0.00 0.01 0.07 0.13 0.04 0.01 0.00 0.00 0.00 0.00 0.00 0.00 0.00 0.00 0.00 0.00 0.00 0.00 0.00 0.00 0.00 0.00 0.00 0.00 0.00 0.00 0.00 0.00 0.00 0.00 0.00 0.00 0.00 0.00 0.00 0.00 0.00 0.00 0.00 0.00 0.00 0.00 0.00 0.00 0.00 0.00
0.00 0.00 0.00 0.00 0.00 0.03 0.07 0.03 0.02 0.01 0.01 0.00 0.00 0.00 0.00 0.00 0.00 0.00 0.00 0.00 0.00 0.00 0.00 0.00 0.00 0.00 0.00 0.00 0.00 0.00 0.00 0.00 0.00 0.00 0.00 0.00 0.00 0.00 0.00 0.00 0.00 0.00 0.00 0.00 0.00 0.00 0.00 0.00 0.00
0.00 0.00 0.00 0.00 0.00 0.01 0.02 0.03 0.06 0.04 0.01 0.00 0.00 0.00 0.00 0.00 0.00 0.00 0.00 0.00 0.00 0.00 0.00 0.00 0.00 0.00 0.00 0.00 0.00 0.00 0.00 0.00 0.00 0.00 0.00 0.00 0.00 0.00 0.00 0.00 0.00 0.00 0.00 0.00 0.00 0.00 0.00 0.00 0.00
0.00 0.00 0.00 0.00 0.00 0.00 0.01 0.04 0.08 0.07 0.02 0.00 0.00 0.00 0.00 0.00 0.00 0.00 0.00 0.00 0.00 0.00 0.00 0.00 0.00 0.00 0.00 0.00 0.00 0.00 0.00 0.00 0.00 0.00 0.00 0.00 0.00 0.00 0.00 0.00 0.00 0.00 0.00 0.00 0.00 0.00 0.00 0.00 0.00
0.00 0.00 0.00 0.00 0.00 0.00 0.02 0.04 0.06 0.07 0.04 0.02 0.01 0.00 0.00 0.00 0.00 0.00 0.00 0.00 0.00 0.00 0.00 0.00 0.00 0.00 0.00 0.00 0.00 0.00 0.00 0.00 0.00 0.00 0.00 0.00 0.00 0.00 0.00 0.00 0.00 0.00 0.00 0.00 0.00 0.00 0.00 0.00 0.00
0.00 0.00 0.00 0.00 0.00 0.00 0.01 0.02 0.04 0.05 0.04 0.02 0.01 0.01 0.01 0.00 0.00 0.00 0.00 0.00 0.00 0.00 0.00 0.00 0.00 0.00 0.00 0.00 0.00 0.00 0.00 0.00 0.00 0.00 0.00 0.00 0.00 0.00 0.00 0.00 0.00 0.00 0.00 0.00 0.00 0.00 0.00 0.00 0.00
0.00 0.00 0.00 0.00 0.00 0.00 0.00 0.01 0.02 0.02 0.02 0.02 0.04 0.05 0.03 0.01 0.00 0.00 0.00 0.00 0.00 0.00 0.00 0.00 0.00 0.00 0.00 0.00 0.00 0.00 0.00 0.00 0.00 0.00 0.00 0.00 0.00 0.00 0.00 0.00 0.02 0.04 0.05 0.04 0.03 0.02 0.01 0.01 0.00
0.00 0.00 0.00 0.00 0.00 0.00 0.00 0.00 0.00 0.00 0.01 0.02 0.04 0.10 0.07 0.02 0.01 0.00 0.00 0.00 0.00 0.00 0.00 0.00 0.00 0.00 0.00 0.00 0.00 0.00 0.00 0.00 0.00 0.00 0.00 0.00 0.00 0.00 0.00 0.02 0.07 0.11 0.13 0.12 0.11 0.11 0.09 0.06 0.03
0.00 0.00 0.00 0.00 0.00 0.00 0.00 0.00 0.00 0.00 0.01 0.01 0.03 0.08 0.03 0.01 0.01 0.01 0.01 0.01 0.01 0.01 0.01 0.01 0.00 0.00 0.00 0.00 0.00 0.00 0.00 0.00 0.00 0.00 0.01 0.01 0.01 0.01 0.02 0.05 0.10 0.13 0.15 0.10 0.15 0.22 0.18 0.16 0.14
0.00 0.00 0.00 0.00 0.00 0.00 0.00 0.00 0.00 0.00 0.00 0.01 0.01 0.05 0.06 0.04 0.02 0.01 0.03 0.04 0.03 0.03 0.03 0.03 0.02 0.01 0.00 0.00 0.00 0.00 0.00 0.00 0.01 0.02 0.05 0.06 0.05 0.05 0.07 0.08 0.08 0.09 0.08 0.10 0.12 0.17 0.28 0.35 0.28
0.00 0.00 0.00 0.00 0.00 0.00 0.00 0.00 0.00 0.00 0.00 0.00 0.00 0.04 0.15 0.17 0.08 0.07 0.12 0.14 0.11 0.07 0.06 0.06 0.07 0.04 0.02 0.01 0.00 0.01 0.01 0.01 0.02 0.04 0.07 0.11 0.13 0.11 0.13 0.14 0.11 0.09 0.11 0.14 0.17 0.21 0.33 0.44 0.39
0.00 0.00 0.00 0.00 0.00 0.00 0.00 0.00 0.00 0.00 0.00 0.00 0.00 0.02 0.08 0.14 0.11 0.12 0.20 0.23 0.17 0.14 0.18 0.22 0.22 0.16 0.10 0.04 0.02 0.02 0.03 0.04 0.05 0.07 0.09 0.14 0.15 0.12 0.13 0.13 0.12 0.10 0.12 0.15 0.18 0.20 0.26 0.32 0.29
0.00 0.00 0.00 0.00 0.00 0.00 0.00 0.00 0.00 0.00 0.00 0.00 0.00 0.00 0.01 0.04 0.08 0.18 0.26 0.27 0.30 0.37 0.49 0.63 0.63 0.41 0.24 0.13 0.06 0.06 0.07 0.07 0.07 0.07 0.08 0.14 0.13 0.10 0.09 0.07 0.06 0.06 0.08 0.10 0.11 0.11 0.12 0.12 0.13
0.00 0.00 0.00 0.00 0.00 0.00 0.00 0.00 0.00 0.00 0.00 0.00 0.00 0.00 0.01 0.04 0.08 0.15 0.24 0.38 0.58 0.83 1.12 1.33 1.29 0.93 0.55 0.32 0.16 0.11 0.11 0.12 0.10 0.06 0.04 0.04 0.05 0.04 0.03 0.03 0.03 0.03 0.03 0.05 0.05 0.05 0.06 0.05 0.05
0.00 0.00 0.00 0.00 0.00 0.00 0.00 0.00 0.00 0.00 0.00 0.00 0.00 0.01 0.03 0.07 0.12 0.17 0.29 0.51 0.88 1.30 1.77 2.16 2.14 1.56 0.90 0.49 0.27 0.19 0.17 0.14 0.10 0.06 0.03 0.02 0.01 0.01 0.01 0.01 0.01 0.01 0.01 0.01 0.01 0.02 0.02 0.02 0.02
0.00 0.00 0.00 0.00 0.00 0.00 0.00 0.00 0.00 0.00 0.00 0.00 0.00 0.01 0.04 0.09 0.16 0.26 0.44 0.67 1.02 1.59 2.18 2.52 2.60 1.97 1.19 0.70 0.41 0.28 0.20 0.12 0.07 0.04 0.01 0.00 0.00 0.00 0.00 0.00 0.00 0.00 0.00 0.00 0.00 0.00 0.00 0.01 0.01
0.00 0.00 0.00 0.00 0.00 0.00 0.00 0.00 0.00 0.00 0.00 0.00 0.01 0.02 0.05 0.11 0.20 0.34 0.55 0.80 1.27 2.00 2.67 2.89 2.60 1.86 1.28 0.84 0.55 0.28 0.14 0.07 0.03 0.02 0.01 0.00 0.00 0.00 0.00 0.00 0.00 0.00 0.00 0.00 0.00 0.00 0.00 0.00 0.00
0.00 0.00 0.00 0.00 0.00 0.00 0.00 0.00 0.00 0.00 0.00 0.00 0.01 0.02 0.06 0.13 0.25 0.44 0.70 1.08 1.56 1.99 2.29 2.25 1.86 1.25 0.87 0.57 0.31 0.15 0.09 0.04 0.01 0.01 0.01 0.00 0.00 0.00 0.00 0.00 0.00 0.00 0.00 0.00 0.00 0.00 0.00 0.00 0.00
0.00 0.00 0.00 0.00 0.00 0.00 0.00 0.00 0.01 0.01 0.01 0.01 0.02 0.04 0.10 0.20 0.32 0.48 0.86 1.29 1.36 1.46 1.50 1.24 0.90 0.62 0.50 0.30 0.15 0.09 0.04 0.02 0.01 0.01 0.01 0.00 0.00 0.00 0.00 0.00 0.00 0.00 0.00 0.00 0.00 0.00 0.00 0.00 0.00
0.00 0.00 0.00 0.00 0.00 0.00 0.00 0.01 0.03 0.04 0.03 0.03 0.04 0.05 0.09 0.16 0.23 0.29 0.51 0.82 0.78 0.71 0.67 0.52 0.40 0.31 0.25 0.18 0.15 0.10 0.06 0.04 0.04 0.03 0.02 0.01 0.00 0.00 0.00 0.00 0.00 0.00 0.00 0.00 0.00 0.00 0.00 0.00 0.00
0.00 0.00 0.00 0.00 0.00 0.00 0.00 0.01 0.03 0.07 0.07 0.05 0.05 0.05 0.04 0.04 0.05 0.07 0.14 0.21 0.24 0.24 0.31 0.35 0.27 0.24 0.24 0.19 0.15 0.12 0.10 0.08 0.07 0.06 0.04 0.03 0.02 0.01 0.01 0.00 0.00 0.00 0.00 0.00 0.00 0.00 0.00 0.00 0.00
0.00 0.00 0.00 0.00 0.01 0.02 0.03 0.04 0.08 0.21 0.24 0.13 0.06 0.03 0.01 0.01 0.00 0.01 0.02 0.03 0.06 0.09 0.14 0.18 0.17 0.20 0.24 0.25 0.20 0.16 0.12 0.09 0.08 0.07 0.06 0.06 0.05 0.03 0.02 0.01 0.01 0.00 0.00 0.00 0.00 0.00 0.00 0.00 0.00
0.00 0.00 0.00 0.00 0.01 0.03 0.03 0.03 0.16 0.38 0.26 0.11 0.03 0.01 0.01 0.00 0.00 0.00 0.01 0.02 0.03 0.05 0.08 0.10 0.10 0.11 0.13 0.16 0.17 0.15 0.13 0.10 0.09 0.08 0.06 0.07 0.07 0.07 0.06 0.04 0.03 0.02 0.01 0.00 0.00 0.00 0.00 0.00 0.00
0.00 0.00 0.00 0.00 0.00 0.01 0.02 0.08 0.27 0.32 0.16 0.06 0.02 0.00 0.00 0.00 0.00 0.00 0.00 0.01 0.01 0.02 0.03 0.03 0.03 0.04 0.04 0.05 0.06 0.07 0.08 0.10 0.11 0.10 0.09 0.10 0.13 0.14 0.13 0.11 0.07 0.05 0.04 0.02 0.00 0.00 0.00 0.00 0.00
0.01 0.00 0.00 0.00 0.00 0.01 0.04 0.12 0.16 0.15 0.10 0.05 0.02 0.01 0.00 0.00 0.00 0.00 0.00 0.00 0.00 0.00 0.00 0.00 0.01 0.01 0.01 0.01 0.02 0.02 0.03 0.04 0.05 0.06 0.07 0.09 0.13 0.16 0.16 0.15 0.13 0.11 0.08 0.05 0.03 0.01 0.00 0.00 0.00
0.02 0.01 0.00 0.00 0.00 0.00 0.03 0.12 0.13 0.10 0.06 0.02 0.01 0.00 0.00 0.00 0.00 0.00 0.00 0.00 0.00 0.00 0.00 0.00 0.00 0.00 0.00 0.00 0.00 0.00 0.00 0.01 0.01 0.01 0.02 0.03 0.05 0.08 0.11 0.13 0.12 0.11 0.10 0.08 0.05 0.02 0.01 0.00 0.00
0.02 0.01 0.01 0.01 0.01 0.01 0.01 0.06 0.07 0.06 0.03 0.01 0.00 0.00 0.00 0.00 0.00 0.00 0.00 0.00 0.00 0.00 0.00 0.00 0.00 0.00 0.00 0.00 0.00 0.00 0.00 0.00 0.00 0.00 0.00 0.00 0.01 0.02 0.03 0.05 0.07 0.08 0.09 0.09 0.07 0.04 0.02 0.01 0.00
0.01 0.02 0.02 0.02 0.01 0.01 0.01 0.03 0.02 0.02 0.01 0.01 0.00 0.00 0.00 0.00 0.00 0.00 0.00 0.00 0.00 0.00 0.00 0.00 0.00 0.00 0.00 0.00 0.00 0.00 0.00 0.00 0.00 0.00 0.00 0.00 0.00 0.00 0.00 0.00 0.01 0.03 0.05 0.07 0.08 0.06 0.04 0.02 0.01
MSLP
1009.37 1010.41 1011.49 1012.40 1012.96 1013.05 1012.65 1011.81 1010.70 1009.54 1008.53 1007.86 1007.60 1007.75 1008.21 1008.83 1009.44 1009.89 1010.11 1010.09 1009.91 1009.67 1009.49 1009.45 1009.60 1009.92 1010.34 1010.77 1011.14 1011.41 1011.56 1011.63 1011.68 1011.77 1011.95 1012.23 1012.58 1012.97 1013.32 1013.60 1013.78 1013.88 1013.91 1013.92 1013.96 1014.04 1014.19 1014.37 1014.56
1009.75 1010.93 1012.05 1012.91 1013.33 1013.23 1012.60 1011.55 1010.27 1008.98 1007.91 1007.20 1006.94 1007.08 1007.54 1008.14 1008.74 1009.18 1009.42 1009.45 1009.35 1009.22 1009.14 1009.20 1009.42 1009.77 1010.19 1010.60 1010.94 1011.18 1011.33 1011.42 1011.51 1011.65 1011.87 1012.16 1012.51 1012.86 1013.18 1013.42 1013.57 1013.66 1013.72 1013.77 1013.85 1013.97 1014.14 1014.32 1014.49
1010.22 1011.48 1012.60 1013.39 1013.68 1013.42 1012.64 1011.47 1010.12 1008.80 1007.74 1007.05 1006.79 1006.93 1007.33 1007.87 1008.38 1008.75 1008.95 1008.98 1008.91 1008.84 1008.84 1008.97 1009.24 1009.61 1010.02 1010.41 1010.73 1010.96 1011.12 1011.23 1011.36 1011.53 1011.77 1012.06 1012.38 1012.68 1012.94 1013.13 1013.26 1013.35 1013.44 1013.55 1013.69 1013.87 1014.07 1014.27 1014.43
1010.71 1011.99 1013.06 1013.75 1013.93 1013.57 1012.72 1011.54 1010.22 1008.97 1007.99 1007.36 1007.13 1007.23 1007.55 1007.95 1008.32 1008.56 1008.65 1008.64 1008.57 1008.53 1008.59 1008.77 1009.08 1009.47 1009.87 1010.24 1010.54 1010.76 1010.92 1011.06 1011.21 1011.41 1011.66 1011.93 1012.21 1012.45 1012.64 1012.78 1012.88 1012.98 1013.11 1013.28 1013.51 1013.76 1014.01 1014.22 1014.38
1011.14 1012.36 1013.33 1013.91 1013.99 1013.57 1012.74 1011.63 1010.43 1009.34 1008.50 1007.97 1007.77 1007.82 1008.02 1008.25 1008.43 1008.50 1008.46 1008.37 1008.28 1008.27 1008.37 1008.61 1008.95 1009.35 1009.74 1010.09 1010.37 1010.57 1010.74 1010.90 1011.09 1011.31 1011.56 1011.81 1012.04 1012.22 1012.35 1012.43 1012.51 1012.61 1012.78 1013.01 1013.30 1013.62 1013.92 1014.17 1014.33
1011.42 1012.51 1013.34 1013.77 1013.76 1013.32 1012.55 1011.57 1010.56 1009.68 1009.01 1008.60 1008.42 1008.41 1008.48 1008.54 1008.52 1008.42 1008.26 1008.10 1008.01 1008.04 1008.20 1008.50 1008.88 1009.29 1009.67 1009.99 1010.24 1010.43 1010.60 1010.77 1010.98 1011.23 1011.48 1011.72 1011.91 1012.04 1012.10 1012.14 1012.18 1012.28 1012.46 1012.74 1013.08 1013.45 1013.79 1014.06 1014.24
1011.53 1012.42 1013.04 1013.31 1013.20 1012.74 1012.04 1011.22 1010.42 1009.74 1009.25 1008.96 1008.82 1008.76 1008.70 1008.61 1008.43 1008.20 1007.97 1007.80 1007.75 1007.85 1008.10 1008.46 1008.89 1009.31 1009.67 1009.95 1010.16 1010.32 1010.48 1010.66 1010.89 1011.16 1011.43 1011.66 1011.83 1011.92 1011.94 1011.92 1011.92 1012.00 1012.17 1012.45 1012.82 1013.21 1013.58 1013.87 1014.06
1011.47 1012.11 1012.50 1012.56 1012.32 1011.84 1011.20 1010.51 1009.89 1009.41 1009.08 1008.88 1008.77 1008.68 1008.55 1008.35 1008.10 1007.82 1007.59 1007.48 1007.52 1007.73 1008.08 1008.53 1009.00 1009.42 1009.75 1009.98 1010.13 1010.24 1010.37 1010.55 1010.80 1011.09 1011.38 1011.63 1011.79 1011.86 1011.84 1011.78 1011.73 1011.76 1011.90 1012.15 1012.50 1012.89 1013.26 1013.56 1013.76
1011.29 1011.67 1011.79 1011.63 1011.24 1010.69 1010.07 1009.48 1009.00 1008.65 1008.45 1008.34 1008.27 1008.18 1008.02 1007.81 1007.55 1007.32 1007.18 1007.18 1007.37 1007.72 1008.19 1008.72 1009.21 1009.61 1009.88 1010.04 1010.11 1010.16 1010.25 1010.41 1010.67 1010.98 1011.31 1011.58 1011.76 1011.83 1011.79 1011.69 1011.59 1011.56 1011.63 1011.83 1012.13 1012.48 1012.83 1013.12 1013.33
1011.07 1011.19 1011.05 1010.67 1010.11 1009.47 1008.83 1008.28 1007.87 1007.62 1007.50 1007.46 1007.44 1007.38 1007.26 1007.10 1006.93 1006.82 1006.83 1007.00 1007.36 1007.85 1008.43 1009.00 1009.49 1009.84 1010.02 1010.08 1010.05 1010.03 1010.06 1010.21 1010.47 1010.81 1011.17 1011.49 1011.70 1011.79 1011.74 1011.62 1011.47 1011.37 1011.37 1011.49 1011.71 1012.00 1012.31 1012.59 1012.80
1010.90 1010.80 1010.42 1009.83 1009.11 1008.36 1007.67 1007.12 1006.74 1006.54 1006.47 1006.48 1006.51 1006.52 1006.49 1006.45 1006.42 1006.48 1006.67 1007.02 1007.52 1008.12 1008.75 1009.33 1009.77 1010.02 1010.10 1010.04 1009.91 1009.80 1009.78 1009.90 1010.17 1010.54 1010.95 1011.32 1011.58 1011.69 1011.67 1011.53 1011.35 1011.20 1011.12 1011.15 1011.28 1011.50 1011.76 1012.01 1012.22
1010.85 1010.55 1009.99 1009.23 1008.38 1007.53 1006.79 1006.22 1005.85 1005.67 1005.63 1005.69 1005.79 1005.89 1005.97 1006.07 1006.20 1006.43 1006.79 1007.27 1007.86 1008.50 1009.11 1009.62 1009.96 1010.09 1010.04 1009.86 1009.63 1009.45 1009.39 1009.49 1009.77 1010.17 1010.62 1011.04 1011.35 1011.52 1011.53 1011.41 1011.22 1011.03 1010.90 1010.85 1010.90 1011.05 1011.24 1011.46 1011.66
1010.91 1010.49 1009.80 1008.93 1008.00 1007.10 1006.34 1005.76 1005.39 1005.23 1005.23 1005.34 1005.50 1005.69 1005.90 1006.13 1006.40 1006.76 1007.21 1007.74 1008.33 1008.92 1009.43 1009.81 1009.99 1009.98 1009.79 1009.51 1009.21 1008.98 1008.90 1009.01 1009.30 1009.72 1010.20 1010.67 1011.03 1011.26 1011.32 1011.25 1011.08 1010.89 1010.73 1010.63 1010.62 1010.70 1010.84 1011.01 1011.19
1011.06 1010.57 1009.82 1008.92 1007.98 1007.10 1006.37 1005.83 1005.50 1005.38 1005.42 1005.58 1005.81 1006.08 1006.38 1006.70 1007.06 1007.46 1007.90 1008.39 1008.87 1009.30 1009.63 1009.82 1009.82 1009.66 1009.37 1009.02 1008.69 1008.45 1008.38 1008.50 1008.80 1009.24 1009.74 1010.23 1010.64 1010.92 1011.05 1011.04 1010.93 1010.78 1010.63 1010.52 1010.47 1010.50 1010.59 1010.71 1010.85
1011.23 1010.70 1009.96 1009.11 1008.25 1007.46 1006.83 1006.39 1006.14 1006.09 1006.19 1006.41 1006.69 1007.02 1007.37 1007.72 1008.07 1008.43 1008.78 1009.11 1009.39 1009.59 1009.69 1009.65 1009.48 1009.19 1008.83 1008.47 1008.15 1007.95 1007.92 1008.06 1008.37 1008.80 1009.29 1009.78 1010.21 1010.53 1010.73 1010.80 1010.78 1010.70 1010.60 1010.52 1010.47 1010.46 1010.50 1010.57 1010.65
1011.34 1010.82 1010.14 1009.40 1008.70 1008.09 1007.63 1007.34 1007.22 1007.27 1007.44 1007.70 1008.02 1008.37 1008.71 1009.03 1009.32 1009.55 1009.72 1009.82 1009.84 1009.78 1009.61 1009.36 1009.03 1008.67 1008.29 1007.96 1007.72 1007.59 1007.61 1007.78 1008.08 1008.48 1008.92 1009.37 1009.78 1010.12 1010.38 1010.54 1010.62 1010.65 1010.64 1010.61 1010.58 1010.56 1010.56 1010.57 1010.59
1011.33 1010.84 1010.28 1009.72 1009.23 1008.86 1008.63 1008.54 1008.58 1008.74 1008.98 1009.28 1009.60 1009.93 1010.22 1010.45 1010.61 1010.67 1010.62 1010.46 1010.21 1009.87 1009.47 1009.04 1008.61 1008.21 1007.88 1007.63 1007.49 1007.47 1007.55 1007.73 1008.00 1008.32 1008.68 1009.05 1009.40 1009.73 1010.02 1010.26 1010.45 1010.59 1010.69 1010.74 1010.76 1010.75 1010.71 1010.66 1010.61
1011.19 1010.76 1010.35 1010.02 1009.80 1009.71 1009.74 1009.86 1010.07 1010.33 1010.62 1010.92 1011.21 1011.47 1011.67 1011.79 1011.79 1011.66 1011.39 1011.00 1010.50 1009.94 1009.36 1008.81 1008.33 1007.96 1007.70 1007.57 1007.55 1007.62 1007.76 1007.94 1008.14 1008.35 1008.58 1008.82 1009.08 1009.36 1009.66 1009.96 1010.25 1010.52 1010.72 1010.87 1010.94 1010.94 1010.89 1010.79 1010.67
1010.94 1010.61 1010.39 1010.31 1010.38 1010.58 1010.87 1011.20 1011.55 1011.88 1012.18 1012.44 1012.66 1012.82 1012.90 1012.89 1012.74 1012.45 1012.01 1011.44 1010.77 1010.06 1009.37 1008.76 1008.29 1007.98 1007.83 1007.82 1007.92 1008.07 1008.23 1008.37 1008.47 1008.55 1008.61 1008.70 1008.83 1009.04 1009.31 1009.65 1010.02 1010.38 1010.69 1010.93 1011.06 1011.08 1011.02 1010.88 1010.71
1010.64 1010.44 1010.44 1010.64 1011.01 1011.49 1012.00 1012.50 1012.94 1013.28 1013.53 1013.71 1013.81 1013.85 1013.81 1013.67 1013.41 1013.01 1012.47 1011.80 1011.04 1010.27 1009.55 1008.96 1008.53 1008.31 1008.26 1008.36 1008.54 1008.74 1008.89 1008.96 1008.95 1008.86 1008.75 1008.66 1008.65 1008.76 1008.99 1009.33 1009.75 1010.18 1010.57 1010.88 1011.06 1011.11 1011.04 1010.89 1010.68
1010.37 1010.35 1010.59 1011.07 1011.71 1012.42 1013.12 1013.73 1014.18 1014.48 1014.63 1014.66 1014.61 1014.51 1014.34 1014.12 1013.79 1013.35 1012.78 1012.11 1011.36 1010.62 1009.94 1009.39 1009.04 1008.89 1008.93 1009.10 1009.32 1009.52 1009.64 1009.63 1009.48 1009.23 1008.95 1008.70 1008.55 1008.54 1008.71 1009.03 1009.45 1009.92 1010.35 1010.70 1010.91 1010.98 1010.92 1010.77 1010.56
1010.21 1010.39 1010.88 1011.62 1012.50 1013.40 1014.22 1014.85 1015.27 1015.45 1015.44 1015.30 1015.08 1014.82 1014.55 1014.26 1013.92 1013.50 1012.99 1012.39 1011.73 1011.07 1010.47 1010.01 1009.73 1009.64 1009.72 1009.91 1010.13 1010.30 1010.36 1010.25 1009.99 1009.61 1009.18 1008.80 1008.52 1008.41 1008.50 1008.77 1009.17 1009.62 1010.05 1010.41 1010.63 1010.71 1010.66 1010.51 1010.32
1010.20 1010.60 1011.32 1012.28 1013.35 1014.38 1015.25 1015.86 1016.17 1016.20 1016.00 1015.66 1015.26 1014.87 1014.51 1014.19 1013.88 1013.53 1013.12 1012.65 1012.12 1011.58 1011.08 1010.70 1010.47 1010.41 1010.49 1010.66 1010.84 1010.96 1010.95 1010.77 1010.42 1009.95 1009.43 1008.95 1008.58 1008.39 1008.39 1008.59 1008.92 1009.32 1009.71 1010.03 1010.24 1010.31 1010.26 1010.13 1009.97
1010.36 1010.95 1011.88 1013.01 1014.21 1015.31 1016.17 1016.70 1016.88 1016.73 1016.34 1015.82 1015.26 1014.74 1014.32 1013.99 1013.73 1013.48 1013.20 1012.87 1012.48 1012.07 1011.67 1011.35 1011.15 1011.08 1011.13 1011.25 1011.37 1011.44 1011.37 1011.14 1010.76 1010.25 1009.69 1009.17 1008.75 1008.49 1008.41 1008.52 1008.76 1009.06 1009.37 1009.62 1009.78 1009.82 1009.77 1009.66 1009.54
1010.64 1011.41 1012.48 1013.73 1014.99 1016.10 1016.91 1017.35 1017.39 1017.08 1016.51 1015.83 1015.14 1014.54 1014.08 1013.76 1013.55 1013.40 1013.25 1013.05 1012.79 1012.48 1012.16 1011.87 1011.67 1011.57 1011.56 1011.61 1011.68 1011.69 1011.59 1011.36 1010.98 1010.50 1009.96 1009.44 1009.01 1008.70 1008.56 1008.57 1008.69 1008.88 1009.07 1009.22 1009.29 1009.29 1009.23 1009.13 1009.04
1011.04 1011.91 1013.06 1014.36 1015.63 1016.70 1017.43 1017.77 1017.69 1017.25 1016.56 1015.77 1015.00 1014.34 1013.86 1013.56 1013.40 1013.33 1013.27 1013.17 1013.00 1012.76 1012.48 1012.21 1011.98 1011.83 1011.75 1011.74 1011.75 1011.73 1011.63 1011.42 1011.10 1010.69 1010.22 1009.75 1009.34 1009.02 1008.81 1008.72 1008.72 1008.77 1008.82 1008.85 1008.83 1008.77 1008.68 1008.59 1008.52
1011.50 1012.41 1013.58 1014.85 1016.07 1017.06 1017.72 1017.96 1017.80 1017.28 1016.54 1015.70 1014.90 1014.22 1013.74 1013.45 1013.32 1013.28 1013.27 1013.22 1013.10 1012.89 1012.63 1012.34 1012.07 1011.86 1011.72 1011.65 1011.61 1011.58 1011.51 1011.36 1011.13 1010.81 1010.44 1010.06 1009.69 1009.37 1009.11 1008.93 1008.81 1008.71 1008.63 1008.53 1008.42 1008.29 1008.16 1008.06 1008.00
1012.01 1012.90 1014.01 1015.20 1016.32 1017.22 1017.78 1017.96 1017.76 1017.23 1016.48 1015.66 1014.87 1014.21 1013.74 1013.45 1013.32 1013.28 1013.26 1013.21 1013.08 1012.87 1012.58 1012.26 1011.94 1011.68 1011.49 1011.37 1011.31 1011.28 1011.24 1011.17 1011.03 1010.83 1010.57 1010.28 1009.97 1009.66 1009.38 1009.13 1008.90 1008.68 1008.47 1008.26 1008.06 1007.86 1007.70 1007.58 1007.52
1012.56 1013.39 1014.39 1015.45 1016.43 1017.21 1017.69 1017.83 1017.63 1017.13 1016.45 1015.68 1014.95 1014.33 1013.86 1013.55 1013.38 1013.30 1013.23 1013.12 1012.95 1012.69 1012.36 1011.99 1011.64 1011.33 1011.09 1010.94 1010.86 1010.84 1010.84 1010.83 1010.79 1010.69 1010.54 1010.34 1010.09 1009.82 1009.53 1009.22 1008.92 1008.61 1008.31 1008.01 1007.74 1007.49 1007.30 1007.16 1007.09
1013.18 1013.89 1014.75 1015.65 1016.48 1017.13 1017.54 1017.65 1017.47 1017.04 1016.45 1015.77 1015.11 1014.52 1014.05 1013.71 1013.48 1013.30 1013.14 1012.95 1012.69 1012.37 1011.99 1011.58 1011.18 1010.84 1010.57 1010.39 1010.29 1010.27 1010.29 1010.33 1010.36 1010.35 1010.29 1010.17 1009.99 1009.75 1009.47 1009.16 1008.81 1008.45 1008.10 1007.75 1007.43 1007.16 1006.95 1006.79 1006.70
Thickness
5849 5846 5842 5831 5813 5801 5802 5827 5848 5854 5857 5864 5869 5862 5851 5842 5831 5821 5845 5850 5844 5836 5832 5828 5824 5821 5818 5816 5813 5810 5807 5804 5802 5800 5797 5796 5793 5791 5788 5786 5783 5781 5779 5777 5774 5772 5769 5767 5764
5850 5847 5835 5821 5805 5789 5800 5828 5837 5850 5861 5871 5869 5862 5852 5843 5849 5844 5845 5847 5845 5838 5833 5829 5825 5822 5819 5816 5813 5810 5807 5804 5801 5799 5797 5794 5792 5790 5788 5785 5783 5781 5778 5776 5773 5771 5768 5766 5764
5851 5847 5824 5811 5801 5793 5802 5825 5837 5853 5867 5870 5861 5861 5853 5845 5849 5847 5849 5848 5843 5837 5833 5830 5827 5823 5820 5816 5813 5810 5807 5804 5801 5798 5796 5793 5791 5789 5787 5785 5782 5780 5778 5775 5773 5770 5768 5766 5764
5848 5833 5821 5804 5800 5812 5821 5833 5839 5844 5856 5863 5857 5848 5854 5862 5859 5855 5851 5846 5840 5835 5833 5830 5827 5824 5820 5817 5813 5810 5806 5803 5800 5797 5794 5792 5789 5787 5785 5783 5781 5779 5777 5775 5772 5770 5767 5765 5764
5842 5823 5806 5795 5805 5826 5837 5845 5841 5833 5843 5848 5850 5839 5842 5859 5864 5856 5850 5844 5839 5834 5832 5829 5826 5823 5819 5816 5813 5809 5805 5801 5798 5795 5792 5789 5786 5784 5782 5780 5778 5776 5775 5773 5771 5768 5766 5764 5762
5828 5816 5795 5789 5808 5831 5838 5846 5842 5828 5832 5840 5840 5833 5837 5853 5854 5850 5849 5844 5841 5836 5832 5829 5825 5822 5818 5815 5811 5808 5804 5800 5796 5792 5789 5786 5783 5780 5779 5777 5775 5774 5772 5770 5769 5767 5765 5763 5761
5821 5809 5797 5802 5809 5822 5837 5848 5840 5829 5829 5838 5844 5828 5832 5844 5851 5850 5847 5844 5840 5835 5831 5828 5824 5821 5817 5813 5809 5805 5801 5797 5793 5789 5786 5783 5780 5778 5776 5774 5773 5771 5770 5768 5767 5766 5764 5762 5760
5832 5810 5801 5801 5809 5819 5841 5849 5850 5842 5835 5851 5850 5829 5826 5842 5851 5848 5843 5839 5837 5833 5830 5828 5824 5819 5815 5810 5806 5802 5798 5794 5790 5787 5783 5780 5778 5776 5774 5772 5770 5769 5768 5767 5765 5764 5762 5760 5758
5838 5801 5789 5800 5811 5823 5840 5840 5847 5853 5846 5845 5849 5848 5852 5857 5853 5845 5838 5833 5830 5829 5827 5825 5821 5816 5811 5807 5803 5798 5794 5791 5787 5784 5781 5778 5775 5773 5771 5769 5767 5766 5766 5765 5763 5761 5760 5757 5755
5817 5791 5802 5821 5829 5832 5840 5842 5844 5840 5833 5833 5839 5851 5860 5859 5852 5844 5839 5834 5828 5825 5822 5820 5816 5812 5807 5802 5799 5795 5791 5788 5785 5782 5779 5776 5773 5770 5768 5766 5765 5764 5763 5762 5761 5759 5757 5754 5752
5817 5806 5820 5831 5840 5842 5840 5845 5850 5837 5824 5832 5836 5845 5853 5854 5850 5844 5843 5841 5836 5829 5822 5815 5810 5806 5802 5799 5796 5792 5789 5785 5782 5779 5776 5773 5770 5767 5765 5763 5763 5762 5761 5760 5759 5757 5754 5752 5749
5815 5820 5828 5834 5841 5839 5840 5844 5843 5841 5843 5855 5855 5856 5853 5849 5846 5842 5838 5838 5834 5825 5816 5809 5803 5801 5798 5797 5795 5791 5786 5782 5779 5776 5773 5768 5765 5763 5762 5761 5760 5760 5760 5758 5756 5754 5752 5749 5747
5812 5818 5830 5836 5838 5840 5842 5839 5841 5845 5857 5857 5852 5846 5844 5843 5840 5838 5835 5829 5824 5814 5806 5801 5795 5792 5791 5790 5790 5787 5783 5780 5777 5773 5770 5765 5762 5760 5759 5757 5757 5757 5756 5755 5752 5750 5749 5747 5746
5810 5814 5822 5831 5834 5839 5833 5834 5835 5842 5851 5845 5839 5835 5834 5832 5830 5823 5817 5811 5805 5797 5789 5784 5784 5784 5783 5783 5783 5782 5780 5778 5774 5771 5768 5764 5761 5757 5754 5753 5753 5753 5752 5750 5748 5747 5746 5744 5743
5810 5802 5807 5820 5825 5830 5826 5814 5829 5843 5842 5833 5829 5826 5822 5815 5809 5803 5799 5794 5789 5781 5775 5770 5765 5768 5772 5775 5775 5776 5775 5773 5769 5767 5765 5762 5758 5755 5752 5749 5748 5748 5748 5746 5745 5744 5743 5741 5740
5794 5784 5778 5806 5819 5824 5809 5789 5824 5835 5831 5821 5819 5814 5802 5792 5790 5788 5786 5781 5777 5770 5761 5759 5753 5752 5757 5763 5765 5766 5767 5765 5762 5760 5759 5757 5754 5751 5748 5745 5743 5743 5742 5740 5739 5738 5737 5737 5737
5768 5760 5768 5791 5816 5816 5804 5788 5805 5819 5816 5806 5802 5795 5784 5777 5775 5773 5772 5769 5764 5757 5753 5750 5751 5739 5740 5751 5753 5755 5757 5756 5753 5751 5751 5751 5749 5746 5744 5740 5738 5737 5736 5734 5734 5732 5732 5731 5732
5754 5760 5768 5778 5802 5805 5792 5775 5776 5786 5789 5782 5780 5776 5769 5763 5759 5761 5760 5758 5756 5753 5753 5750 5742 5737 5731 5736 5740 5743 5745 5746 5746 5745 5746 5745 5743 5741 5739 5735 5732 5731 5730 5729 5728 5727 5728 5728 5729
5774 5770 5768 5781 5802 5790 5768 5755 5755 5762 5765 5760 5756 5753 5750 5747 5748 5750 5750 5750 5751 5750 5748 5746 5738 5732 5726 5725 5726 5729 5731 5737 5740 5741 5741 5739 5738 5736 5733 5730 5728 5726 5724 5723 5724 5724 5724 5724 5727
5776 5766 5765 5778 5795 5785 5758 5744 5748 5752 5749 5747 5743 5738 5734 5733 5736 5739 5740 5742 5743 5742 5741 5739 5734 5729 5722 5721 5723 5725 5728 5731 5736 5737 5735 5734 5733 5731 5729 5726 5723 5722 5721 5719 5719 5719 5718 5720 5723
5771 5765 5766 5769 5778 5777 5763 5734 5734 5738 5743 5742 5739 5733 5729 5727 5727 5730 5733 5735 5736 5733 5729 5726 5724 5721 5718 5720 5721 5722 5723 5723 5724 5725 5726 5728 5728 5727 5726 5723 5721 5719 5718 5715 5715 5715 5714 5713 5717
5758 5777 5778 5772 5756 5741 5750 5716 5718 5724 5727 5728 5725 5723 5720 5718 5720 5723 5726 5724 5723 5721 5720 5716 5713 5710 5710 5712 5712 5712 5710 5710 5712 5715 5718 5721 5722 5722 5721 5720 5718 5716 5714 5712 5711 5712 5711 5710 5709
5772 5781 5773 5765 5750 5735 5732 5713 5707 5716 5709 5710 5713 5714 5712 5711 5712 5713 5713 5712 5710 5709 5708 5705 5702 5700 5698 5699 5700 5701 5701 5702 5704 5706 5708 5711 5714 5715 5715 5715 5713 5712 5709 5708 5707 5706 5706 5706 5706
5783 5769 5755 5741 5728 5712 5718 5706 5696 5699 5698 5700 5706 5707 5706 5704 5704 5703 5702 5700 5697 5696 5694 5692 5690 5689 5688 5687 5687 5687 5687 5689 5691 5693 5695 5698 5701 5704 5707 5708 5708 5707 5705 5703 5702 5701 5701 5702 5703
5771 5736 5709 5706 5695 5697 5712 5700 5693 5702 5704 5703 5702 5701 5700 5699 5696 5694 5691 5688 5685 5682 5680 5678 5675 5674 5675 5675 5675 5674 5673 5674 5675 5677 5680 5683 5686 5690 5695 5699 5700 5700 5700 5699 5697 5696 5696 5697 5698
5763 5738 5706 5694 5690 5692 5701 5691 5692 5702 5702 5702 5700 5697 5693 5690 5687 5685 5681 5678 5675 5673 5670 5667 5664 5661 5661 5660 5660 5660 5660 5661 5661 5663 5665 5667 5670 5674 5680 5686 5690 5692 5693 5693 5692 5691 5691 5692 5693
5755 5743 5739 5711 5706 5688 5686 5685 5688 5693 5693 5693 5690 5686 5682 5679 5677 5674 5670 5666 5662 5659 5656 5654 5651 5649 5648 5647 5646 5645 5645 5645 5646 5647 5649 5651 5654 5659 5663 5669 5674 5678 5681 5683 5684 5684 5685 5686 5687
5763 5750 5726 5708 5690 5678 5682 5680 5676 5681 5682 5682 5678 5674 5671 5670 5667 5664 5659 5655 5650 5644 5639 5636 5634 5632 5632 5632 5630 5630 5628 5628 5628 5630 5632 5634 5638 5642 5646 5650 5655 5661 5666 5670 5673 5675 5677 5679 5681
5751 5743 5725 5704 5695 5678 5668 5674 5691 5684 5681 5675 5670 5666 5663 5660 5657 5653 5648 5644 5638 5631 5624 5618 5613 5610 5609 5609 5609 5609 5609 5609 5610 5610 5613 5616 5620 5624 5628 5632 5637 5642 5648 5655 5659 5664 5668 5671 5674
5749 5738 5722 5698 5690 5683 5667 5667 5691 5682 5675 5669 5663 5659 5655 5651 5646 5640 5634 5628 5621 5614 5607 5601 5595 5590 5587 5586 5585 5584 5585 5585 5586 5588 5592 5596 5599 5604 5608 5613 5618 5624 5630 5636 5643 5650 5656 5660 5664